Weather Roundup
Issued by NWS Springfield, MO

Home | Current Version | Previous Version | Text Only | Print | Product List | Glossary On
Versions: 1 2 3 4 5 6 7 8 9 10 11 12 13 14 15 16 17 18 19 20 21 22 23 24 25 26 27 28 29 30 31 32 33 34 35 36 37 38 39 40 41 42 43 44 45 46 47 48 49 50
000
NZUS99 KSGF 170557
HRRSGF

HOURLY WEATHER
NATIONAL WEATHER SERVICE SPRINGFIELD MO
100 AM CDT TUE OCT 17 2017

......SGF CWA......

CITY           SKY/WX    TMP DP  RH WIND       PRES   REMARKS
SPRINGFIELD    CLEAR     46  40  79 S3        30.29S
6HR MIN TEMP:  43; 6HR MAX TEMP:  59;

JOPLIN         CLEAR     42  42 100 SE5       30.28F
6HR MIN TEMP:  42; 6HR MAX TEMP:  57;

WEST PLAINS    CLEAR     41  36  82 CALM      30.32S
6HR MIN TEMP:  40; 6HR MAX TEMP:  55;

ROLLA          CLEAR     44  37  76 SW6       30.30S
6HR MIN TEMP:  44; 6HR MAX TEMP:  53;


......SURROUNDING SGF CWA......

CITY           SKY/WX    TMP DP  RH WIND       PRES   REMARKS
CHANUTE        CLEAR     46  40  79 S6        30.27S
PARSONS        CLEAR     43  41  93 CALM      30.28F
COFFEYVILLE    CLEAR     46  43  89 S3        30.27F
EMPORIA        CLOUDY    50  40  68 S14       30.22F
HARRISON AR    CLEAR     45  38  76 SW3       30.31S

......KANSAS AND MISSOURI......

CITY           SKY/WX    TMP DP  RH WIND       PRES   REMARKS
KANSAS CTY INT PTCLDY    50  42  74 S9        30.22F
SEDALIA        CLEAR     49  44  83 S6        30.27F
ST JOSEPH      CLEAR     49  43  80 S7        30.20F
ST LOUIS       NOT AVBL
WICHITA        CLOUDY    47  42  83 S9        30.23F
TOPEKA         PTCLDY    55  42  61 S9        30.21F
OLATHE         CLOUDY    50  41  71 S7        30.24F

......TENNESSEE......

CITY           SKY/WX    TMP DP  RH WIND       PRES   REMARKS
MEMPHIS        NOT AVBL
NASHVILLE      CLEAR     47  43  86 NE3       30.32S

......ARKANSAS.......

CITY           SKY/WX    TMP DP  RH WIND       PRES   REMARKS
FAYETTEVILLE   CLEAR     40  40 100 CALM      30.31S
FT SMITH       CLEAR     50  49  96 NE3       30.29F
LITTLE ROCK    CLEAR     47  46  97 CALM      30.31F

......OKLAHOMA.......

CITY           SKY/WX    TMP DP  RH WIND       PRES   REMARKS
TULSA          CLEAR     49  45  86 CALM      30.28F
PONCA CITY     CLEAR     54  42  64 S6        30.25F
MCALESTER      PTCLDY    45  43  93 CALM      30.29S
OKLAHOMA CITY  PTCLDY    47  40  76 S6        30.28F

......IOWA............

CITY           SKY/WX    TMP DP  RH WIND       PRES   REMARKS
DES MOINES     NOT AVBL
QUAD CITIES    PTCLDY    54  36  50 SW9       30.18F

......ILLINOIS........

CITY           SKY/WX    TMP DP  RH WIND       PRES   REMARKS
QUINCY         NOT AVBL
CHICAGO        CLEAR     49  38  65 SW7       30.20S



USA.gov is the U.S. government's official web portal to all federal, state and local government web resources and services.